Regional Weather Roundup
Issued by NWS

Home | Current Version | Previous Version | Text Only | Print | Product List | Glossary Off
Versions: 1 2 3 4 5 6 7 8 9 10 11 12 13 14 15 16 17 18 19 20 21 22 23 24 25 26 27 28 29 30 31 32 33 34 35 36 37 38 39 40 41 42 43 44 45 46 47 48 49 50

000
ASUS45 KPSR 181200
RWRAZ

PRELIMINARY ARIZONA REGIONAL HOURLY WEATHER ROUNDUP
NATIONAL WEATHER SERVICE PHOENIX AZ
500 AM MST FRI APR 18 2014

NOTE: FAIR INDICATES FEW OR NO CLOUDS BELOW 12,000 FEET WITH NO
SIGNIFICANT WEATHER AND/OR OBSTRUCTIONS TO VISIBILITY.

AZZ001>003-036-181300-
NORTHWEST ARIZONA

CITY           SKY/WX    TMP DP  RH WIND       PRES   REMARKS
KINGMAN        CLOUDY    58  18  21 SE10      29.89F
6HR MIN TEMP:  55; 6HR MAX TEMP:  65;

$$

AZZ004>008-015-016-018-181300-
NORTH CENTRAL ARIZONA

CITY           SKY/WX    TMP DP  RH WIND       PRES   REMARKS
GRAND CANYON   CLOUDY    31  15  52 E3        30.07S
6HR MIN TEMP:  30; 6HR MAX TEMP:  39;

WILLIAMS       MOCLDY    37  16  41 SE8       30.13S WCI  31
PRESCOTT       MOCLDY    55  20  25 SW8       30.00R
6HR MIN TEMP:  47; 6HR MAX TEMP:  60;

FLAGSTAFF      MOCLDY    35  20  54 CALM      30.09S
6HR MIN TEMP:  35; 6HR MAX TEMP:  42;

PAYSON         MOCLDY    55  19  24 CALM      30.03S
PAGE           MOCLDY    58  22  24 SW6       29.95R
6HR MIN TEMP:  57; 6HR MAX TEMP:  71;

$$

AZZ009>014-017-181300-
NORTHEAST ARIZONA

CITY           SKY/WX    TMP DP  RH WIND       PRES   REMARKS
WINSLOW        NOT AVBL
SAINT JOHNS    MOCLDY    42  17  36 CALM      30.06S
6HR MIN TEMP:  41; 6HR MAX TEMP:  58;

WINDOW ROCK    MOCLDY    32  17  54 CALM      30.14S
6HR MIN TEMP:  30; 6HR MAX TEMP:  44;

SHOW LOW       CLOUDY    48  14  25 S6        30.11S
$$

AZZ023-181300-
GREATER PHOENIX AREA

CITY           SKY/WX    TMP DP  RH WIND       PRES   REMARKS
PHOENIX        CLOUDY    72  35  25 SE5       29.83R
6HR MIN TEMP:  72; 6HR MAX TEMP:  82;

LUKE AFB       NOT AVBL
6HR MIN TEMP:  67; 6HR MAX TEMP:  78;

DEER VALLEY    CLOUDY    66  29  24 E6        29.85S
6HR MIN TEMP:  66; 6HR MAX TEMP:  74;

SCOTTSDALE     CLOUDY    70  33  25 CALM      29.86F
6HR MIN TEMP:  69; 6HR MAX TEMP:  75;

MESA-GATEWAY   CLEAR     64  32  29 SE6       29.87S
$$

AZZ027-028-181300-
SOUTHWEST MARICOPA COUNTY AND PINAL COUNTY

CITY           SKY/WX    TMP DP  RH WIND       PRES   REMARKS
CASA GRANDE    CLOUDY    64  30  27 CALM      29.86S
6HR MIN TEMP:  64; 6HR MAX TEMP:  77;

$$

AZZ503-504-507>509-181300-
SOUTHEAST ARIZONA

CITY           SKY/WX    TMP DP  RH WIND       PRES   REMARKS
TUCSON         CLOUDY    66  31  27 SE6       29.93S
6HR MIN TEMP:  66; 6HR MAX TEMP:  74;

DAVIS-MONTHAN  CLOUDY    65  38  35 SE6       29.91F
6HR MIN TEMP:  64; 6HR MAX TEMP:  73;

NOGALES        CLOUDY    58  36  43 CALM      29.98R
6HR MIN TEMP:  58; 6HR MAX TEMP:  68;

SIERRA VISTA   CLOUDY    57  25  28 SE7       30.01S
SAFFORD        CLOUDY    67  23  19 E13       29.94S
6HR MIN TEMP:  65; 6HR MAX TEMP:  71;

$$

AZZ020-021-025-026-031-181300-
SOUTHWEST ARIZONA

CITY           SKY/WX    TMP DP  RH WIND       PRES   REMARKS
YUMA           NOT AVBL
$$

CAZ031-033-041-043-047-048-061-181300-
SOUTHERN CALIFORNIA

CITY           SKY/WX    TMP DP  RH WIND       PRES   REMARKS
DOWNTOWN L.A.  CLOUDY    62  51  67 VRB3      29.87R
6HR MIN TEMP:  62; 6HR MAX TEMP:  63;

L.A. AIRPORT   CLOUDY    62  51  67 SE6       29.88R
6HR MIN TEMP:  61; 6HR MAX TEMP:  64;

SAN DIEGO      CLOUDY    63  52  67 VRB3      29.87F
6HR MIN TEMP:  62; 6HR MAX TEMP:  63;

BURBANK        CLOUDY    59  52  77 S6        29.87R
6HR MIN TEMP:  59; 6HR MAX TEMP:  60;

ONTARIO        CLOUDY    59  53  80 VRB5      29.86F
6HR MIN TEMP:  58; 6HR MAX TEMP:  59;

RIVERSIDE      CLOUDY    59  53  80 CALM      29.86F
6HR MIN TEMP:  59; 6HR MAX TEMP:  60;

PALM SPRINGS   CLOUDY    65  52  62 SE6       29.79F
6HR MIN TEMP:  65; 6HR MAX TEMP:  75;

EL CENTRO NAS  CLOUDY    62  55  77 E7        29.74F
6HR MIN TEMP:  62; 6HR MAX TEMP:  71;

IMPERIAL       CLOUDY    65  51  60 E9        29.74F
6HR MIN TEMP:  65; 6HR MAX TEMP:  72;

BLYTHE         CLOUDY    67  43  41 SW3       29.77S
6HR MIN TEMP:  66; 6HR MAX TEMP:  78;

$$

NVZ020-UTZ003-181300-
SOUTHERN NEVADA-UTAH

CITY           SKY/WX    TMP DP  RH WIND       PRES   REMARKS
LAS VEGAS      NOT AVBL
SALT LAKE CITY CLOUDY    64  24  21 S20       29.81F
6HR MIN TEMP:  62; 6HR MAX TEMP:  66;

$$

NMZ009-TXZ055-181300-
NEW MEXICO-WEST TEXAS

CITY           SKY/WX    TMP DP  RH WIND       PRES   REMARKS
ALBUQUERQUE    PTCLDY    46  27  47 N6        30.14S
6HR MIN TEMP:  46; 6HR MAX TEMP:  59;

EL PASO        CLOUDY    57  39  51 NE9       30.10R
6HR MIN TEMP:  57; 6HR MAX TEMP:  65;

$$


........................KEY........................
SKY/WX - SKY CONDITION/WEATHER
TMP    - TEMPERATURE IN FAHRENHEIT
DP     - DEW POINT IN FAHRENHEIT
RH     - RELATIVE HUMIDITY IN PERCENT
WIND   - DIRECTION AND SPEED IN MILES PER HOUR (MPH)
VRB    - VARIABLE WIND DIRECTION
PRES   - MEAN SEA LEVEL PRESSURE IN INCHES OF MERCURY
         F - FALLING PRESSURE   R - RISING PRESSURE
         S - STEADY PRESSURE
VSB    - VISIBILITY IN MILES
HX     - HEAT INDEX IN FAHRENHEIT
WCI    - WIND CHILL INDEX IN FAHRENHEIT
TC     - TEMPERATURE IN CELSIUS WHICH IS ALSO KNOWN AS
         TEMPERATURE IN CENTIGRADE
AFB    - AIR FORCE BASE
         LUKE AFB IS LUKE AIR FORCE BASE
         DAVIS-MONTHAN IS DAVIS-MONTHAN AIR FORCE BASE
NAS    - NAVAL AIR STATION
         EL CENTRO NAS IS EL CENTRO NAVAL AIR STATION
N/A    - NOT AVAILABLE



USA.gov is the U.S. government's official web portal to all federal, state and local government web resources and services.